Regional Weather Roundup
Issued by NWS

Home | Current Version | Previous Version | Graphics & Text | Print | Product List | Glossary On
Versions: 1 2 3 4 5 6 7 8 9 10 11 12 13 14 15 16 17 18 19 20 21 22 23 24 25 26 27 28 29 30 31 32 33 34 35 36 37 38 39 40 41 42 43 44 45 46 47 48 49 50
669
ASUS45 KBOU 282007
RWRCO

WEATHER ROUNDUP FOR COLORADO
NATIONAL WEATHER SERVICE DENVER/BOULDER CO
200 PM MDT THU APR 28 2016

NOTE: "FAIR" INDICATES FEW OR NO CLOUDS BELOW 12000 FEET WITH NO
SIGNIFICANT WEATHER AND/OR OBSTRUCTIONS TO VISIBILITY.

COZ001>005-013-030-031-282100-
...NORTHWEST COLORADO...

CITY           SKY/WX    TMP DP  RH WIND       PRES   REMARKS
CRAIG          PTSUNNY   44  38  79 VRB3      29.81S
HAYDEN         CLOUDY    39  34  81 E10       29.81R
MEEKER         FAIR      51  38  60 MISG      29.75F
MOUNT WERNER   NOT AVBL
STEAMBOAT SPGS FAIR      39  37  91 W7        29.80S
WALDEN         PTSUNNY   34  32  93 N14       29.86S WCI  24
$$

COZ006>008-011-282100-
...WEST CENTRAL VALLEYS...

CITY           SKY/WX    TMP DP  RH WIND       PRES   REMARKS
GRAND JUNCTION FAIR      48  41  76 N9        29.74F
MONTROSE       FAIR      58  27  30 VRB6G20   29.72F
EAGLE          PTSUNNY   48  36  61 NE8       29.80F
RIFLE          LGT RAIN  53  40  61 MISG      29.73F
DELTA          NOT AVBL
NUCLA          NOT AVBL
$$

COZ017>023-064>068-282100-
...SOUTHWEST COLORADO...

CITY           SKY/WX    TMP DP  RH WIND       PRES   REMARKS
DURANGO        FAIR      57  18  21 S21G35    29.76F
CORTEZ         CLOUDY    55  24  30 S16G31    29.75S
PAGOSA SPRINGS PTSUNNY   55  16  21 W14G20    29.80F
TELLURIDE      FAIR      45  24  45 SE10G20   29.84S
WOLF CREEK PAS NOT AVBL
$$

COZ009-010-012-014-032>034-037-058>063-282100-
...CENTRAL COLORADO...

CITY           SKY/WX    TMP DP  RH WIND       PRES   REMARKS
ASPEN          PTSUNNY   45  30  55 VRB3      29.78S
BUENA VISTA    CLOUDY    35  31  86 S12       29.90R FOG     WCI  27
COPPER MTN     NOT AVBL
BERTHOUD PASS  CLOUDY    19  10  68 MISG      29.94R
COTTONWOOD PAS FOG       34  32  93 NE5       29.91R VSB 1   WCI  30
GUNNISON       FAIR      54  18  24 SW17G32   29.80R
KREMMLING      CLOUDY    39  34  81 E5        29.84S
LEADVILLE      FLURRIES  29  27  92 S10       29.87R WCI  20
MONARCH PASS   PTSUNNY   32  19  59 SW25G36   30.03S WCI  19
SALIDA         FAIR      41  33  71 SE14G23   29.97S
SUNLIGHT       PTSUNNY   37  32  81 CALM      29.89S
WILKERSON PASS FOG       28  27  93 S7        29.97R VSB 1/2 WCI  21
$$

COZ069>075-282100-
...SAN LUIS VALLEY/SANGRE DE CRISTO MOUNTAINS...

CITY           SKY/WX    TMP DP  RH WIND       PRES   REMARKS
ALAMOSA        FAIR      57  24  28 S29G40    29.81S
LA VETA PASS   SNOW      30  28  93 NE6       29.95S VSB 1/4 WCI  24
SAGUACHE       FAIR      54  23  30 SW17G24   29.84R
$$

COZ035-036-038>040-282100-
...NORTHERN COLORADO FRONT RANGE...

CITY           SKY/WX    TMP DP  RH WIND       PRES   REMARKS
DENVER INTL AP CLOUDY    38  30  73 E14       29.97S
DMNS CITY PARK   N/A     38  31  75 E8G17     29.97S
AURORA         CLOUDY    36  33  86 E14       29.97S
FRONT RANGE AP CLOUDY    37  32  81 E12G22    29.98F
ERIE MUNI ARPT RAIN      37  36  93 CALM      29.98S
BOULDER MUN AP CLOUDY    36  34  93 NE5       29.97S
CENTENNIAL     CLOUDY    37  32  82 E12       29.95S
BROOMFIELD     LGT SNOW  37  36  93 E6        29.97F
FORT COLLINS   CLOUDY    39  32  75 SE6       29.99F
LONGMONT       CLOUDY    40  35  81 CALM      30.00S HAZE
$$

COZ041-046-047-076>085-087-088-282100-
...PIKES PEAK/PALMER DIVIDE AND SOUTHERN FOOTHILLS...

CITY           SKY/WX    TMP DP  RH WIND       PRES   REMARKS
COLO. SPRINGS  CLOUDY    36  30  79 SE13      29.98R
A. F. ACADEMY  CLOUDY    36  28  75 S10       29.96R
SCHRIEVER AFB  NOT AVBL
ELLICOTT       NOT AVBL
FALCON         CLOUDY    33  31  90 S9        29.98R WCI  26
FORT CARSON    CLOUDY    38  32  81 SE6       29.96F
LIMON          CLOUDY    38  33  82 E8        29.98S
MONUMENT HILL  CLOUDY    32  28  86 S12       29.96R WCI  23
TRINIDAD       PTSUNNY   56  35  45 E18G24    29.87F
$$

COZ042>045-048>051-090-091-282100-
...NORTHEAST COLORADO...

CITY           SKY/WX    TMP DP  RH WIND       PRES   REMARKS
GREELEY ARPT   CLOUDY    39  34  81 SE6       30.00S
AKRON          CLOUDY    38  34  85 E8        30.00S
BURLINGTON     CLOUDY    48  32  53 NE10      29.99S
WRAY           NOT AVBL
STERLING       DRIZZLE   39  36  87 E5        30.00S
HOLYOKE        NOT AVBL
FORT MORGAN    CLOUDY    38  34  86 E7        30.01S
$$

COZ086-089-092>099-282100-
...SOUTHEAST COLORADO...

CITY           SKY/WX    TMP DP  RH WIND       PRES   REMARKS
PUEBLO         CLOUDY    47  29  49 E13       29.95F
LA JUNTA       PTSUNNY   53  30  41 E15       29.96F
LAMAR          CLOUDY    52  32  46 SE9       29.96F
SPRINGFIELD      N/A     49  32  52 E13       29.95F
$$




USA.gov is the U.S. government's official web portal to all federal, state and local government web resources and services.